| time (UTC) | temp F | wind direction | speed knots | gust knots | rain 1hr in | rain 24hr in | rain mn in | humidity % | barometer mb |
| 20260510183056 | 93 | 220 | 8.7 | 16.5 | 0.00 | 0.00 | 0.00 | 22 | 1008.7 |
| 20260510182551 | 93 | 215 | 9.6 | 16.5 | 0.00 | 0.00 | 0.00 | 22 | 1008.7 |
| 20260510182050 | 93 | 213 | 7.0 | 14.8 | 0.00 | 0.00 | 0.00 | 22 | 1008.8 |
| 20260510181550 | 93 | 229 | 6.1 | 14.8 | 0.00 | 0.00 | 0.00 | 22 | 1008.9 |
| 20260510180549 | 92 | 217 | 8.7 | 15.6 | 0.00 | 0.00 | 0.00 | 25 | 1009.0 |
| 20260510180049 | 92 | 210 | 8.7 | 16.5 | 0.00 | 0.00 | 0.00 | 25 | 1009.0 |
| 20260510175547 | 91 | 242 | 9.6 | 16.5 | 0.00 | 0.00 | 0.00 | 25 | 1009.3 |
| 20260510175048 | 91 | 238 | 7.8 | 14.8 | 0.00 | 0.00 | 0.00 | 27 | 1009.3 |
| 20260510174546 | 91 | 215 | 8.7 | 18.2 | 0.00 | 0.00 | 0.00 | 26 | 1009.3 |
| 20260510174046 | 90 | 199 | 8.7 | 15.6 | 0.00 | 0.00 | 0.00 | 28 | 1009.6 |
| 20260510173544 | 90 | 214 | 8.7 | 15.6 | 0.00 | 0.00 | 0.00 | 29 | 1009.5 |
| 20260510173053 | 89 | 206 | 7.0 | 16.5 | 0.00 | 0.00 | 0.00 | 28 | 1009.5 |
| 20260510172542 | 90 | 246 | 8.7 | 16.5 | 0.00 | 0.00 | 0.00 | 28 | 1009.7 |
| 20260510172042 | 89 | 228 | 8.7 | 14.8 | 0.00 | 0.00 | 0.00 | 30 | 1009.6 |
| 20260510171548 | 88 | 206 | 9.6 | 15.6 | 0.00 | 0.00 | 0.00 | 31 | 1009.6 |
| 20260510170540 | 89 | 191 | 9.6 | 15.6 | 0.00 | 0.00 | 0.00 | 30 | 1009.5 |
| 20260510170039 | 89 | 205 | 9.6 | 13.9 | 0.00 | 0.00 | 0.00 | 31 | 1009.6 |
| 20260510165538 | 88 | 223 | 7.8 | 14.8 | 0.00 | 0.00 | 0.00 | 32 | 1009.5 |
| 20260510165037 | 88 | 187 | 9.6 | 13.0 | 0.00 | 0.00 | 0.00 | 33 | 1009.4 |
| 20260510164544 | 87 | 200 | 8.7 | 16.5 | 0.00 | 0.00 | 0.00 | 34 | 1009.4 |
| 20260510164035 | 87 | 198 | 9.6 | 16.5 | 0.00 | 0.00 | 0.00 | 33 | 1009.5 |
| 20260510163534 | 87 | 200 | 10.4 | 15.6 | 0.00 | 0.00 | 0.00 | 34 | 1009.4 |
| 20260510163034 | 86 | 183 | 7.0 | 15.6 | 0.00 | 0.00 | 0.00 | 35 | 1009.3 |
| 20260510162532 | 86 | 216 | 9.6 | 15.6 | 0.00 | 0.00 | 0.00 | 35 | 1009.4 |
| 20260510162032 | 86 | 191 | 10.4 | 17.4 | 0.00 | 0.00 | 0.00 | 35 | 1009.5 |
| 20260510161531 | 85 | 225 | 10.4 | 15.6 | 0.00 | 0.00 | 0.00 | 36 | 1009.6 |
| 20260510160535 | 85 | 218 | 9.6 | 17.4 | 0.00 | 0.00 | 0.00 | 36 | 1009.6 |
| 20260510160034 | 85 | 191 | 9.6 | 20.0 | 0.00 | 0.00 | 0.00 | 37 | 1009.7 |
| 20260510155530 | 85 | 212 | 10.4 | 20.0 | 0.00 | 0.00 | 0.00 | 37 | 1009.6 |
| 20260510155027 | 84 | 192 | 12.2 | 16.5 | 0.00 | 0.00 | 0.00 | 38 | 1009.6 |
| 20260510154527 | 84 | 194 | 10.4 | 19.1 | 0.00 | 0.00 | 0.00 | 38 | 1009.6 |
| 20260510154026 | 84 | 208 | 10.4 | 19.1 | 0.00 | 0.00 | 0.00 | 39 | 1009.7 |
| 20260510153524 | 83 | 209 | 12.2 | 16.5 | 0.00 | 0.00 | 0.00 | 39 | 1009.6 |
| 20260510153033 | 83 | 187 | 10.4 | 17.4 | 0.00 | 0.00 | 0.00 | 40 | 1009.7 |
| 20260510152521 | 83 | 210 | 12.2 | 20.0 | 0.00 | 0.00 | 0.00 | 40 | 1009.7 |
| 20260510152020 | 82 | 223 | 11.3 | 20.0 | 0.00 | 0.00 | 0.00 | 41 | 1009.6 |
| 20260510151520 | 82 | 197 | 9.6 | 16.5 | 0.00 | 0.00 | 0.00 | 43 | 1009.7 |
| 20260510150521 | 81 | 177 | 9.6 | 19.1 | 0.00 | 0.00 | 0.00 | 44 | 1009.6 |
| 20260510150021 | 81 | 210 | 12.2 | 19.1 | 0.00 | 0.00 | 0.00 | 44 | 1009.6 |
| 20260510145520 | 81 | 202 | 10.4 | 18.2 | 0.00 | 0.00 | 0.00 | 44 | 1009.5 |
| 20260510145022 | 81 | 211 | 10.4 | 18.2 | 0.00 | 0.00 | 0.00 | 44 | 1009.4 |
| 20260510144527 | 81 | 209 | 9.6 | 16.5 | 0.00 | 0.00 | 0.00 | 45 | 1009.4 |
| 20260510144017 | 80 | 216 | 12.2 | 19.1 | 0.00 | 0.00 | 0.00 | 45 | 1009.4 |
| 20260510143518 | 80 | 223 | 10.4 | 19.1 | 0.00 | 0.00 | 0.00 | 46 | 1009.4 |
| 20260510143019 | 79 | 179 | 11.3 | 19.1 | 0.00 | 0.00 | 0.00 | 46 | 1009.5 |
| 20260510142514 | 79 | 218 | 12.2 | 17.4 | 0.00 | 0.00 | 0.00 | 47 | 1009.6 |
| 20260510142016 | 79 | 210 | 9.6 | 18.2 | 0.00 | 0.00 | 0.00 | 48 | 1009.5 |
| 20260510141514 | 78 | 189 | 8.7 | 16.5 | 0.00 | 0.00 | 0.00 | 49 | 1009.4 |
| 20260510140508 | 77 | 193 | 9.6 | 14.8 | 0.00 | 0.00 | 0.00 | 50 | 1009.4 |
| 20260510140007 | 76 | 209 | 8.7 | 13.0 | 0.00 | 0.00 | 0.00 | 51 | 1009.4 |
| 20260510135507 | 76 | 199 | 7.0 | 13.0 | 0.00 | 0.00 | 0.00 | 53 | 1009.4 |
| 20260510135004 | 75 | 218 | 6.1 | 13.0 | 0.00 | 0.00 | 0.00 | 53 | 1009.5 |
| 20260510134503 | 75 | 193 | 6.1 | 9.6 | 0.00 | 0.00 | 0.00 | 53 | 1009.6 |
| 20260510134001 | 75 | 189 | 6.1 | 11.3 | 0.00 | 0.00 | 0.00 | 54 | 1009.6 |
| 20260510133601 | 74 | 198 | 7.0 | 11.3 | 0.00 | 0.00 | 0.00 | 54 | 1009.4 |
| 20260510133117 | 74 | 196 | 6.1 | 10.4 | 0.00 | 0.00 | 0.00 | 54 | 1009.5 |
| 20260510132559 | 74 | 229 | 6.1 | 10.4 | 0.00 | 0.00 | 0.00 | 54 | 1009.4 |
| 20260510132101 | 74 | 191 | 6.1 | 10.4 | 0.00 | 0.00 | 0.00 | 55 | 1009.5 |
| 20260510131604 | 73 | 200 | 4.3 | 8.7 | 0.00 | 0.00 | 0.00 | 55 | 1009.3 |
| 20260510130558 | 73 | 164 | 3.5 | 8.7 | 0.00 | 0.00 | 0.00 | 56 | 1009.0 |
| 20260510130058 | 72 | 189 | 3.5 | 9.6 | 0.00 | 0.00 | 0.00 | 56 | 1009.0 |
| 20260510125555 | 72 | 194 | 4.3 | 9.6 | 0.00 | 0.00 | 0.00 | 56 | 1009.0 |
| 20260510125055 | 72 | 195 | 3.5 | 9.6 | 0.00 | 0.00 | 0.00 | 56 | 1008.9 |
| 20260510124559 | 71 | 185 | 5.2 | 8.7 | 0.00 | 0.00 | 0.00 | 57 | 1008.8 |
| 20260510124055 | 71 | 231 | 4.3 | 7.8 | 0.00 | 0.00 | 0.00 | 57 | 1008.9 |
| 20260510123555 | 71 | 196 | 3.5 | 7.0 | 0.00 | 0.00 | 0.00 | 58 | 1008.9 |
| 20260510123101 | 70 | 203 | 2.6 | 7.0 | 0.00 | 0.00 | 0.00 | 57 | 1008.9 |
| 20260510122556 | 70 | 189 | 3.5 | 7.0 | 0.00 | 0.00 | 0.00 | 58 | 1008.8 |
| 20260510122053 | 70 | 188 | 3.5 | 7.0 | 0.00 | 0.00 | 0.00 | 57 | 1008.8 |
| 20260510121553 | 70 | 206 | 3.5 | 7.0 | 0.00 | 0.00 | 0.00 | 57 | 1008.8 |
| 20260510120549 | 70 | 191 | 3.5 | 8.7 | 0.00 | 0.00 | 0.00 | 57 | 1008.6 |
| 20260510120049 | 71 | 191 | 5.2 | 8.7 | 0.00 | 0.00 | 0.00 | 56 | 1008.6 |
| 20260510115550 | 71 | 216 | 4.3 | 12.2 | 0.00 | 0.00 | 0.00 | 55 | 1008.6 |
| 20260510115048 | 72 | 201 | 5.2 | 12.2 | 0.00 | 0.00 | 0.00 | 55 | 1008.5 |
| 20260510114548 | 72 | 188 | 7.0 | 10.4 | 0.00 | 0.00 | 0.00 | 54 | 1008.5 |
| 20260510114047 | 72 | 183 | 5.2 | 13.0 | 0.00 | 0.00 | 0.00 | 54 | 1008.5 |
| 20260510113548 | 72 | 185 | 7.0 | 13.0 | 0.00 | 0.00 | 0.00 | 55 | 1008.5 |
| 20260510113047 | 71 | 196 | 6.1 | 11.3 | 0.00 | 0.00 | 0.00 | 54 | 1008.5 |
| 20260510112547 | 71 | 200 | 6.1 | 10.4 | 0.00 | 0.00 | 0.00 | 55 | 1008.5 |
| 20260510112048 | 71 | 192 | 4.3 | 7.8 | 0.00 | 0.00 | 0.00 | 54 | 1008.5 |
| 20260510111546 | 71 | 171 | 2.6 | 8.7 | 0.00 | 0.00 | 0.00 | 54 | 1008.5 |
| 20260510110549 | 72 | 174 | 5.2 | 9.6 | 0.00 | 0.00 | 0.00 | 54 | 1008.5 |
| 20260510110045 | 71 | 175 | 3.5 | 9.6 | 0.00 | 0.00 | 0.00 | 54 | 1008.3 |
| 20260510105545 | 71 | 169 | 5.2 | 9.6 | 0.00 | 0.00 | 0.00 | 54 | 1008.4 |
| 20260510105043 | 71 | 152 | 4.3 | 7.8 | 0.00 | 0.00 | 0.00 | 55 | 1008.4 |
| 20260510104543 | 71 | 164 | 2.6 | 5.2 | 0.00 | 0.00 | 0.00 | 55 | 1008.3 |
| 20260510104041 | 71 | 189 | 2.6 | 5.2 | 0.00 | 0.00 | 0.00 | 54 | 1008.3 |
| 20260510103540 | 71 | 166 | 2.6 | 8.7 | 0.00 | 0.00 | 0.00 | 54 | 1008.3 |
| 20260510103043 | 72 | 189 | 2.6 | 9.6 | 0.00 | 0.00 | 0.00 | 53 | 1008.2 |
| 20260510102539 | 72 | 189 | 5.2 | 11.3 | 0.00 | 0.00 | 0.00 | 54 | 1008.1 |
| 20260510102037 | 71 | 191 | 7.0 | 11.3 | 0.00 | 0.00 | 0.00 | 54 | 1008.0 |
| 20260510101539 | 70 | 191 | 3.5 | 8.7 | 0.00 | 0.00 | 0.00 | 55 | 1008.1 |
| 20260510100538 | 71 | 190 | 2.6 | 5.2 | 0.00 | 0.00 | 0.00 | 54 | 1007.9 |
| 20260510100037 | 71 | 188 | 2.6 | 5.2 | 0.00 | 0.00 | 0.00 | 53 | 1008.0 |
| 20260510095538 | 72 | 183 | 3.5 | 8.7 | 0.00 | 0.00 | 0.00 | 53 | 1007.9 |
| 20260510095037 | 72 | 201 | 5.2 | 9.6 | 0.00 | 0.00 | 0.00 | 53 | 1008.0 |
| 20260510094537 | 71 | 173 | 6.1 | 9.6 | 0.00 | 0.00 | 0.00 | 54 | 1007.9 |
| 20260510094037 | 71 | 212 | 3.5 | 8.7 | 0.00 | 0.00 | 0.00 | 54 | 1007.9 |
| 20260510093537 | 70 | 191 | 5.2 | 8.7 | 0.00 | 0.00 | 0.00 | 54 | 1007.8 |
| 20260510093037 | 70 | 189 | 3.5 | 7.8 | 0.00 | 0.00 | 0.00 | 54 | 1007.9 |
| 20260510092539 | 70 | 198 | 3.5 | 7.8 | 0.00 | 0.00 | 0.00 | 54 | 1007.8 |
| 20260510092037 | 70 | 184 | 3.5 | 7.8 | 0.00 | 0.00 | 0.00 | 54 | 1007.8 |
| 20260510091535 | 70 | 202 | 2.6 | 7.0 | 0.00 | 0.00 | 0.00 | 54 | 1007.8 |
| 20260510090540 | 70 | 191 | 2.6 | 7.0 | 0.00 | 0.00 | 0.00 | 54 | 1007.8 |
| 20260510090040 | 70 | 183 | 2.6 | 5.2 | 0.00 | 0.00 | 0.00 | 53 | 1007.8 |
| 20260510085543 | 70 | 187 | 2.6 | 5.2 | 0.00 | 0.00 | 0.00 | 53 | 1007.9 |
| 20260510085039 | 70 | 181 | 2.6 | 4.3 | 0.00 | 0.00 | 0.00 | 53 | 1008.0 |
| 20260510084539 | 70 | 187 | 2.6 | 5.2 | 0.00 | 0.00 | 0.00 | 52 | 1008.0 |
| 20260510084039 | 71 | 192 | 1.7 | 5.2 | 0.00 | 0.00 | 0.00 | 52 | 1008.0 |
| 20260510083539 | 71 | 190 | 0.9 | 5.2 | 0.00 | 0.00 | 0.00 | 51 | 1008.1 |
| 20260510083039 | 71 | 195 | 3.5 | 5.2 | 0.00 | 0.00 | 0.00 | 51 | 1008.0 |
| 20260510082539 | 71 | 171 | 2.6 | 5.2 | 0.00 | 0.00 | 0.00 | 51 | 1008.0 |
| 20260510082039 | 72 | 168 | 3.5 | 6.1 | 0.00 | 0.00 | 0.00 | 50 | 1008.0 |
| 20260510081545 | 72 | 183 | 2.6 | 7.0 | 0.00 | 0.00 | 0.00 | 49 | 1008.1 |
| 20260510080536 | 72 | 166 | 1.7 | 7.0 | 0.00 | 0.00 | 0.00 | 49 | 1008.2 |
| 20260510080037 | 72 | 204 | 2.6 | 5.2 | 0.00 | 0.00 | 0.00 | 49 | 1008.2 |
| 20260510075537 | 72 | 162 | 2.6 | 6.1 | 0.00 | 0.00 | 0.00 | 48 | 1008.3 |
| 20260510075040 | 73 | 179 | 2.6 | 7.0 | 0.00 | 0.00 | 0.00 | 48 | 1008.3 |
| 20260510074537 | 73 | 146 | 4.3 | 6.1 | 0.00 | 0.00 | 0.00 | 48 | 1008.3 |
| 20260510074037 | 72 | 177 | 2.6 | 6.1 | 0.00 | 0.00 | 0.00 | 48 | 1008.3 |
| 20260510073537 | 73 | 175 | 2.6 | 6.1 | 0.00 | 0.00 | 0.00 | 48 | 1008.4 |
| 20260510073049 | 73 | 162 | 2.6 | 7.0 | 0.00 | 0.00 | 0.00 | 48 | 1008.3 |
| 20260510072536 | 73 | 149 | 2.6 | 7.0 | 0.00 | 0.00 | 0.00 | 47 | 1008.4 |
| 20260510072036 | 73 | 196 | 1.7 | 6.1 | 0.00 | 0.00 | 0.00 | 48 | 1008.4 |
| 20260510071536 | 72 | 189 | 3.5 | 7.0 | 0.00 | 0.00 | 0.00 | 48 | 1008.5 |
| 20260510070533 | 72 | 192 | 2.6 | 6.1 | 0.00 | 0.00 | 0.00 | 49 | 1008.5 |
| 20260510070034 | 72 | 158 | 2.6 | 5.2 | 0.00 | 0.00 | 0.00 | 49 | 1008.4 |
| 20260510065536 | 73 | 155 | 2.6 | 5.2 | 0.00 | 0.00 | 0.00 | 48 | 1008.5 |
| 20260510065037 | 73 | 147 | 2.6 | 6.1 | 0.00 | 0.00 | 0.00 | 47 | 1008.5 |
| 20260510064541 | 74 | 168 | 3.5 | 6.1 | 0.00 | 0.00 | 0.00 | 47 | 1008.5 |
| 20260510064033 | 74 | 185 | 4.3 | 8.7 | 0.00 | 0.00 | 0.00 | 46 | 1008.7 |
| 20260510063532 | 74 | 180 | 5.2 | 8.7 | 0.00 | 0.00 | 0.00 | 46 | 1008.6 |
| 20260510063039 | 74 | 194 | 5.2 | 7.8 | 0.00 | 0.00 | 0.00 | 47 | 1008.7 |
| 20260510062533 | 74 | 181 | 3.5 | 5.2 | 0.00 | 0.00 | 0.00 | 47 | 1008.7 |
| 20260510062032 | 74 | 182 | 2.6 | 7.8 | 0.00 | 0.00 | 0.00 | 46 | 1008.8 |
| 20260510061532 | 74 | 181 | 2.6 | 7.0 | 0.00 | 0.00 | 0.00 | 46 | 1008.8 |
| 20260510060532 | 74 | 191 | 3.5 | 7.0 | 0.00 | 0.00 | 0.00 | 46 | 1008.9 |
| 20260510060033 | 74 | 191 | 2.6 | 4.3 | 0.00 | 0.00 | 0.00 | 45 | 1009.0 |
| 20260510055531 | 74 | 183 | 2.6 | 4.3 | 0.00 | 0.00 | 0.00 | 45 | 1009.0 |
| 20260510055031 | 75 | 188 | 1.7 | 4.3 | 0.00 | 0.00 | 0.00 | 44 | 1009.1 |
| 20260510054531 | 75 | 200 | 2.6 | 4.3 | 0.00 | 0.00 | 0.00 | 43 | 1009.1 |
| 20260510054035 | 76 | 170 | 1.7 | 3.5 | 0.00 | 0.00 | 0.00 | 42 | 1008.9 |
| 20260510053530 | 77 | 183 | 1.7 | 4.3 | 0.00 | 0.00 | 0.00 | 41 | 1008.9 |
| 20260510053035 | 77 | 137 | 1.7 | 9.6 | 0.00 | 0.00 | 0.00 | 40 | 1009.0 |
| 20260510052532 | 78 | 177 | 3.5 | 9.6 | 0.00 | 0.00 | 0.00 | 39 | 1009.0 |
| 20260510052031 | 78 | 199 | 4.3 | 9.6 | 0.00 | 0.00 | 0.00 | 39 | 1009.1 |
| 20260510051534 | 76 | 171 | 3.5 | 8.7 | 0.00 | 0.00 | 0.00 | 41 | 1009.1 |
| 20260510050535 | 75 | 187 | 4.3 | 8.7 | 0.00 | 0.00 | 0.00 | 42 | 1008.9 |
| 20260510050030 | 74 | 160 | 2.6 | 5.2 | 0.00 | 0.00 | 0.00 | 41 | 1008.9 |
| 20260510045530 | 74 | 165 | 0.9 | 3.5 | 0.00 | 0.00 | 0.00 | 40 | 1008.9 |
| 20260510045033 | 74 | 189 | 1.7 | 3.5 | 0.00 | 0.00 | 0.00 | 39 | 1008.9 |
| 20260510044539 | 74 | 152 | 1.7 | 3.5 | 0.00 | 0.00 | 0.00 | 38 | 1008.9 |
| 20260510044031 | 74 | 179 | 1.7 | 5.2 | 0.00 | 0.00 | 0.00 | 37 | 1008.8 |
| 20260510043529 | 75 | 204 | 2.6 | 6.1 | 0.00 | 0.00 | 0.00 | 36 | 1008.8 |
| 20260510043028 | 75 | 187 | 4.3 | 6.1 | 0.00 | 0.00 | 0.00 | 36 | 1008.8 |
| 20260510042528 | 75 | 197 | 1.7 | 3.5 | 0.00 | 0.00 | 0.00 | 36 | 1008.8 |
| 20260510042028 | 75 | 197 | 1.7 | 4.3 | 0.00 | 0.00 | 0.00 | 35 | 1008.8 |
| 20260510041528 | 76 | 189 | 3.5 | 7.0 | 0.00 | 0.00 | 0.00 | 33 | 1008.8 |
| 20260510040529 | 77 | 202 | 3.5 | 7.0 | 0.00 | 0.00 | 0.00 | 32 | 1008.8 |
| 20260510040031 | 78 | 200 | 4.3 | 7.0 | 0.00 | 0.00 | 0.00 | 32 | 1008.6 |
| 20260510035527 | 78 | 199 | 2.6 | 6.1 | 0.00 | 0.00 | 0.00 | 32 | 1008.6 |
| 20260510035030 | 78 | 193 | 3.5 | 5.2 | 0.00 | 0.00 | 0.00 | 32 | 1008.7 |
| 20260510034534 | 78 | 191 | 2.6 | 7.0 | 0.00 | 0.00 | 0.00 | 32 | 1008.6 |
| 20260510034030 | 78 | 159 | 3.5 | 7.0 | 0.00 | 0.00 | 0.00 | 31 | 1008.5 |
| 20260510033527 | 79 | 228 | 3.5 | 5.2 | 0.00 | 0.00 | 0.00 | 31 | 1008.6 |
| 20260510033026 | 80 | 213 | 2.6 | 7.8 | 0.00 | 0.00 | 0.00 | 30 | 1008.5 |
| 20260510032529 | 80 | 184 | 3.5 | 7.8 | 0.00 | 0.00 | 0.00 | 30 | 1008.4 |
| 20260510032027 | 80 | 177 | 3.5 | 9.6 | 0.00 | 0.00 | 0.00 | 29 | 1008.4 |
| 20260510031532 | 80 | 193 | 2.6 | 5.2 | 0.00 | 0.00 | 0.00 | 30 | 1008.3 |
| 20260510030526 | 80 | 182 | 2.6 | 5.2 | 0.00 | 0.00 | 0.00 | 30 | 1008.3 |
| 20260510030027 | 80 | 200 | 3.5 | 6.1 | 0.00 | 0.00 | 0.00 | 30 | 1008.2 |
| 20260510025526 | 80 | 185 | 2.6 | 5.2 | 0.00 | 0.00 | 0.00 | 29 | 1008.3 |
| 20260510025026 | 81 | 191 | 1.7 | 5.2 | 0.00 | 0.00 | 0.00 | 29 | 1008.2 |
| 20260510024527 | 81 | 191 | 2.6 | 5.2 | 0.00 | 0.00 | 0.00 | 29 | 1008.2 |
| 20260510024025 | 81 | 191 | 2.6 | 4.3 | 0.00 | 0.00 | 0.00 | 28 | 1008.2 |
| 20260510023525 | 82 | 177 | 2.6 | 5.2 | 0.00 | 0.00 | 0.00 | 28 | 1008.1 |
| 20260510023025 | 82 | 183 | 2.6 | 5.2 | 0.00 | 0.00 | 0.00 | 28 | 1008.1 |
| 20260510022525 | 82 | 190 | 1.7 | 4.3 | 0.00 | 0.00 | 0.00 | 27 | 1008.1 |
| 20260510022025 | 82 | 179 | 1.7 | 3.5 | 0.00 | 0.00 | 0.00 | 27 | 1008.1 |
| 20260510021534 | 83 | 158 | 0.9 | 3.5 | 0.00 | 0.00 | 0.00 | 26 | 1007.9 |
| 20260510020525 | 84 | 158 | 1.7 | 5.2 | 0.00 | 0.00 | 0.00 | 25 | 1007.8 |
| 20260510020024 | 84 | 165 | 1.7 | 5.2 | 0.00 | 0.00 | 0.00 | 25 | 1007.7 |
| 20260510015524 | 85 | 189 | 0.9 | 4.3 | 0.00 | 0.00 | 0.00 | 24 | 1007.6 |
| 20260510015028 | 85 | 191 | 1.7 | 6.1 | 0.00 | 0.00 | 0.00 | 24 | 1007.6 |
| 20260510014524 | 86 | 176 | 3.5 | 7.0 | 0.00 | 0.00 | 0.00 | 23 | 1007.5 |
| 20260510014027 | 86 | 183 | 2.6 | 4.3 | 0.00 | 0.00 | 0.00 | 23 | 1007.4 |
| 20260510013524 | 87 | 206 | 2.6 | 5.2 | 0.00 | 0.00 | 0.00 | 22 | 1007.2 |
| 20260510013023 | 87 | 206 | 2.6 | 6.1 | 0.00 | 0.00 | 0.00 | 22 | 1007.2 |
| 20260510012523 | 88 | 196 | 2.6 | 7.0 | 0.00 | 0.00 | 0.00 | 22 | 1007.2 |
| 20260510012023 | 88 | 199 | 3.5 | 7.8 | 0.00 | 0.00 | 0.00 | 21 | 1007.1 |
| 20260510011522 | 88 | 209 | 4.3 | 8.7 | 0.00 | 0.00 | 0.00 | 21 | 1007.1 |
| 20260510010523 | 89 | 204 | 3.5 | 9.6 | 0.00 | 0.00 | 0.00 | 20 | 1007.0 |
| 20260510010024 | 89 | 189 | 3.5 | 9.6 | 0.00 | 0.00 | 0.00 | 19 | 1006.9 |
| 20260510005523 | 90 | 181 | 5.2 | 8.7 | 0.00 | 0.00 | 0.00 | 18 | 1006.9 |
| 20260510005023 | 90 | 170 | 2.6 | 10.4 | 0.00 | 0.00 | 0.00 | 18 | 1006.9 |
| 20260510004522 | 90 | 175 | 5.2 | 10.4 | 0.00 | 0.00 | 0.00 | 17 | 1006.9 |
| 20260510004023 | 91 | 198 | 4.3 | 10.4 | 0.00 | 0.00 | 0.00 | 18 | 1006.8 |
| 20260510003522 | 91 | 202 | 4.3 | 11.3 | 0.00 | 0.00 | 0.00 | 17 | 1006.8 |
| 20260510003026 | 91 | 204 | 5.2 | 11.3 | 0.00 | 0.00 | 0.00 | 16 | 1006.7 |
| 20260510002522 | 91 | 212 | 6.1 | 11.3 | 0.00 | 0.00 | 0.00 | 14 | 1006.7 |
| 20260510002021 | 91 | 193 | 3.5 | 9.6 | 0.00 | 0.00 | 0.00 | 16 | 1006.7 |
| 20260510001523 | 91 | 180 | 4.3 | 8.7 | 0.00 | 0.00 | 0.00 | 15 | 1006.8 |
| 20260510000521 | 92 | 243 | 5.2 | 9.6 | 0.00 | 0.00 | 0.00 | 14 | 1006.8 |
| 20260510000021 | 92 | 227 | 5.2 | 9.6 | 0.00 | 0.00 | 0.00 | 15 | 1006.7 |
| 20260509235520 | 92 | 222 | 4.3 | 9.6 | 0.00 | 0.00 | 0.00 | 15 | 1006.7 |
| 20260509235019 | 92 | 237 | 6.1 | 9.6 | 0.00 | 0.00 | 0.00 | 14 | 1006.7 |
| 20260509234524 | 92 | 281 | 3.5 | 10.4 | 0.00 | 0.00 | 0.00 | 13 | 1006.7 |
| 20260509234018 | 92 | 244 | 6.1 | 11.3 | 0.00 | 0.00 | 0.00 | 13 | 1006.7 |
| 20260509233518 | 92 | 260 | 7.8 | 12.2 | 0.00 | 0.00 | 0.00 | 13 | 1006.7 |
| 20260509233118 | 92 | 248 | 7.0 | 12.2 | 0.00 | 0.00 | 0.00 | 14 | 1006.7 |
| 20260509232517 | 92 | 239 | 3.5 | 7.8 | 0.00 | 0.00 | 0.00 | 14 | 1006.9 |
| 20260509232017 | 92 | 212 | 4.3 | 12.2 | 0.00 | 0.00 | 0.00 | 15 | 1006.9 |
| 20260509231516 | 92 | 214 | 7.0 | 12.2 | 0.00 | 0.00 | 0.00 | 14 | 1006.9 |
| 20260509230516 | 92 | 189 | 6.1 | 9.6 | 0.00 | 0.00 | 0.00 | 13 | 1006.9 |
| 20260509230015 | 92 | 237 | 4.3 | 8.7 | 0.00 | 0.00 | 0.00 | 16 | 1006.9 |
| 20260509225515 | 92 | 238 | 3.5 | 9.6 | 0.00 | 0.00 | 0.00 | 17 | 1006.9 |
| 20260509225019 | 92 | 233 | 1.7 | 9.6 | 0.00 | 0.00 | 0.00 | 16 | 1007.0 |
| 20260509224513 | 92 | 231 | 3.5 | 9.6 | 0.00 | 0.00 | 0.00 | 16 | 1007.1 |
| 20260509224014 | 92 | 247 | 5.2 | 9.6 | 0.00 | 0.00 | 0.00 | 16 | 1007.2 |
| 20260509223512 | 92 | 193 | 5.2 | 11.3 | 0.00 | 0.00 | 0.00 | 17 | 1007.2 |
| 20260509223012 | 92 | 200 | 7.0 | 10.4 | 0.00 | 0.00 | 0.00 | 16 | 1007.1 |
| 20260509222511 | 92 | 192 | 5.2 | 12.2 | 0.00 | 0.00 | 0.00 | 17 | 1007.2 |
| 20260509222011 | 91 | 203 | 4.3 | 10.4 | 0.00 | 0.00 | 0.00 | 17 | 1007.2 |
| 20260509221511 | 92 | 202 | 5.2 | 11.3 | 0.00 | 0.00 | 0.00 | 18 | 1007.3 |
| 20260509220513 | 92 | 204 | 3.5 | 11.3 | 0.00 | 0.00 | 0.00 | 18 | 1007.3 |
| 20260509220013 | 92 | 224 | 7.0 | 11.3 | 0.00 | 0.00 | 0.00 | 18 | 1007.4 |
| 20260509215513 | 91 | 231 | 6.1 | 10.4 | 0.00 | 0.00 | 0.00 | 19 | 1007.4 |
| 20260509215012 | 91 | 238 | 5.2 | 11.3 | 0.00 | 0.00 | 0.00 | 20 | 1007.4 |
| 20260509214511 | 92 | 244 | 6.1 | 10.4 | 0.00 | 0.00 | 0.00 | 18 | 1007.5 |
| 20260509214011 | 91 | 202 | 4.3 | 10.4 | 0.00 | 0.00 | 0.00 | 17 | 1007.5 |
| 20260509213511 | 91 | 258 | 5.2 | 10.4 | 0.00 | 0.00 | 0.00 | 19 | 1007.5 |
| 20260509213010 | 91 | 215 | 7.0 | 9.6 | 0.00 | 0.00 | 0.00 | 20 | 1007.6 |
| 20260509212509 | 91 | 225 | 4.3 | 12.2 | 0.00 | 0.00 | 0.00 | 20 | 1007.7 |
| 20260509212109 | 91 | 208 | 12.2 | 12.2 | 0.00 | 0.00 | 0.00 | 20 | 1007.7 |
| 20260509211512 | 91 | 226 | 2.6 | 8.7 | 0.00 | 0.00 | 0.00 | 18 | 1007.7 |
| 20260509210505 | 91 | 231 | 4.3 | 8.7 | 0.00 | 0.00 | 0.00 | 18 | 1008.0 |
| 20260509210009 | 91 | 245 | 5.2 | 8.7 | 0.00 | 0.00 | 0.00 | 18 | 1008.1 |
| 20260509205502 | 91 | 250 | 2.6 | 11.3 | 0.00 | 0.00 | 0.00 | 21 | 1008.3 |
| 20260509205001 | 91 | 142 | 4.3 | 11.3 | 0.00 | 0.00 | 0.00 | 21 | 1008.4 |
| 20260509204501 | 90 | 287 | 1.7 | 8.7 | 0.00 | 0.00 | 0.00 | 20 | 1008.5 |
| 20260509204101 | 90 | 229 | 2.6 | 10.4 | 0.00 | 0.00 | 0.00 | 20 | 1008.6 |
| 20260509204001 | 90 | 218 | 4.3 | 10.4 | 0.00 | 0.00 | 0.00 | 19 | 1008.6 |
| 20260509203602 | 90 | 212 | 6.1 | 10.4 | 0.00 | 0.00 | 0.00 | 20 | 1008.6 |
| 20260509203058 | 90 | 252 | 5.2 | 10.4 | 0.00 | 0.00 | 0.00 | 21 | 1008.7 |
| 20260509202600 | 90 | 185 | 5.2 | 10.4 | 0.00 | 0.00 | 0.00 | 21 | 1008.7 |
| 20260509202057 | 90 | 204 | 4.3 | 7.0 | 0.00 | 0.00 | 0.00 | 24 | 1008.8 |
| 20260509201601 | 89 | 277 | 7.8 | 12.2 | 0.00 | 0.00 | 0.00 | 23 | 1009.0 |
| 20260509200554 | 89 | 226 | 5.2 | 9.6 | 0.00 | 0.00 | 0.00 | 24 | 1009.0 |
| 20260509195552 | 88 | 164 | 2.6 | 9.6 | 0.00 | 0.00 | 0.00 | 25 | 1009.3 |
| 20260509195051 | 88 | 183 | 4.3 | 13.9 | 0.00 | 0.00 | 0.00 | 25 | 1009.3 |
| 20260509194551 | 88 | 229 | 7.0 | 13.9 | 0.00 | 0.00 | 0.00 | 26 | 1009.4 |
| 20260509194051 | 88 | 239 | 3.5 | 10.4 | 0.00 | 0.00 | 0.00 | 27 | 1009.4 |
| 20260509193550 | 88 | 148 | 2.6 | 10.4 | 0.00 | 0.00 | 0.00 | 27 | 1009.5 |
| 20260509193050 | 88 | 239 | 7.0 | 12.2 | 0.00 | 0.00 | 0.00 | 27 | 1009.6 |
| 20260509192547 | 88 | 195 | 7.0 | 12.2 | 0.00 | 0.00 | 0.00 | 28 | 1009.7 |
| 20260509192047 | 87 | 212 | 6.1 | 9.6 | 0.00 | 0.00 | 0.00 | 29 | 1009.8 |
| 20260509191546 | 87 | 243 | 5.2 | 11.3 | 0.00 | 0.00 | 0.00 | 31 | 1009.8 |
| 20260509190544 | 86 | 196 | 3.5 | 8.7 | 0.00 | 0.00 | 0.00 | 30 | 1010.0 |
| 20260509190051 | 86 | 147 | 3.5 | 11.3 | 0.00 | 0.00 | 0.00 | 31 | 1010.1 |
| 20260509185543 | 86 | 205 | 7.8 | 13.0 | 0.00 | 0.00 | 0.00 | 31 | 1010.0 |
| 20260509185042 | 86 | 187 | 6.1 | 13.0 | 0.00 | 0.00 | 0.00 | 32 | 1010.0 |
| 20260509184540 | 85 | 192 | 4.3 | 12.2 | 0.00 | 0.00 | 0.00 | 33 | 1010.1 |
| 20260509184039 | 85 | 173 | 3.5 | 10.4 | 0.00 | 0.00 | 0.00 | 34 | 1010.3 |
| 20260509183539 | 85 | 183 | 4.3 | 10.4 | 0.00 | 0.00 | 0.00 | 35 | 1010.4 |